Greenland, AR

11:24 PM CST on February 06, 2016 (GMT -0600)
Drake

Weather History for KFYV - July, 2013

Change the Weather History Date:

Wednesday, July 17, 2013

  Actual Average Record
Temperature  
Mean Temperature 78 °F 78 °F  
Max Temperature 90 °F 89 °F 106 °F (1954)
Min Temperature 66 °F 67 °F 52 °F (1976)
Cooling Degree Days 13 13  
Month to date cooling degree days 180 208  
Year to date cooling degree days 606 566  
Since 1 June cooling degree days 470 453  
Growing Degree Days 28 (Base 50)    
Moisture  
Dew Point 67 °F    
Average Humidity 71    
Maximum Humidity 100    
Minimum Humidity 41    
Precipitation  
Precipitation 0.00 in 0.11 in 0.63 in (1955)
Month to date precipitation 1.16 2.09  
Year to date precipitation 26.63 27.28  
Sea Level Pressure  
Sea Level Pressure 30.27 in    
Wind  
Wind Speed 3 mph (SSE)    
Max Wind Speed 10 mph    
Max Gust Speed 35 mph    
Visibility 6 miles    
Events Fog    
T = Trace of Precipitation, MM = Missing Value Source: NWS Daily Summary

Daily Weather History Graph

Daily Weather History Graph

Search for Another Location

Airport or City:

Trip Planner

Search our weather history database for the weather conditions in past years. The results will help you decide how hot, cold, wet, or windy it might be!

Date:

Astronomy

Jul. 17, 2013 Rise Set
Actual Time 6:13 AM CDT 8:32 PM CDT
Civil Twilight 5:43 AM CDT 9:01 PM CDT
Nautical Twilight 5:07 AM CDT 9:37 PM CDT
Astronomical Twilight 4:28 AM CDT 10:16 PM CDT
Moon 3:24 PM CDT (7/17) 1:16 AM CDT (7/17)
Length of Visible Light 15h 17m
Length of Day
14h 19m
Waxing Gibbous, 67% of the Moon is Illuminated
Jul 17
Waxing Gibbous
Jul 22
Full
Jul 29
Last Quarter
Aug 6
New
Aug 14
First Quarter

Hourly Weather History & Observations

Time (CDT) Temp. Heat Index Dew Point Humidity Pressure Visibility Wind Dir Wind Speed Gust Speed Precip Events Conditions
12:24 AM 68.0 °F - 68.0 °F 100% 30.31 in 1.2 mi North - - N/A   Partly Cloudy
12:32 AM 68.0 °F - 68.0 °F 100% 30.31 in 3.0 mi North - - N/A   Clear
12:53 AM 68.0 °F - 68.0 °F 100% 30.27 in 3.0 mi North - - N/A   Clear
1:00 AM 68.0 °F - 68.0 °F 100% 30.31 in 2.0 mi North - - N/A   Partly Cloudy
1:07 AM 66.2 °F - 66.2 °F 100% 30.31 in 1.0 mi North - - N/A   Mist
1:14 AM 68.0 °F - 68.0 °F 100% 30.31 in 0.5 mi North - - N/A Fog Fog
1:53 AM 66.9 °F - 66.9 °F 100% 30.27 in 0.5 mi North - - N/A Fog Fog
2:53 AM 68.0 °F - 68.0 °F 100% 30.25 in 0.2 mi North - - N/A Fog Fog
3:53 AM 66.9 °F - 66.9 °F 100% 30.27 in 0.2 mi North - - 0.01 in Fog Fog
4:53 AM 66.9 °F - 66.9 °F 100% 30.27 in 0.2 mi North - - N/A Fog Fog
5:53 AM 66.0 °F - 66.0 °F 100% 30.29 in 0.2 mi North - - N/A Fog Fog
6:53 AM 66.9 °F - 66.9 °F 100% 30.30 in 0.2 mi Calm Calm - N/A Fog Fog
7:53 AM 68.0 °F - 68.0 °F 100% 30.31 in 0.2 mi Calm Calm - N/A Fog Fog
8:32 AM 69.8 °F - 69.8 °F 100% 30.35 in 2.0 mi Calm Calm - N/A   Overcast
8:40 AM 71.6 °F - 71.6 °F 100% 30.35 in 7.0 mi Calm Calm - N/A   Mostly Cloudy
8:49 AM 73.4 °F - 71.6 °F 94% 30.35 in 10.0 mi Calm Calm - N/A   Scattered Clouds
8:53 AM 72.0 °F - 71.1 °F 97% 30.32 in 10.0 mi Calm Calm - N/A   Partly Cloudy
9:53 AM 79.0 °F - 70.0 °F 74% 30.30 in 10.0 mi Calm Calm - N/A   Scattered Clouds
10:53 AM 82.0 °F 85.9 °F 70.0 °F 67% 30.30 in 10.0 mi Variable 5.8 mph - N/A   Scattered Clouds
11:53 AM 82.9 °F 85.8 °F 68.0 °F 60% 30.30 in 10.0 mi Variable 5.8 mph - N/A   Mostly Cloudy
12:53 PM 84.0 °F 86.5 °F 66.9 °F 56% 30.30 in 10.0 mi South 5.8 mph - N/A   Mostly Cloudy
1:53 PM 89.1 °F 92.1 °F 66.9 °F 48% 30.27 in 10.0 mi SE 8.1 mph - N/A   Mostly Cloudy
2:53 PM 88.0 °F 89.6 °F 64.9 °F 46% 30.25 in 10.0 mi Variable 5.8 mph - N/A   Mostly Cloudy
3:53 PM 90.0 °F 91.3 °F 64.0 °F 42% 30.22 in 10.0 mi Calm Calm - N/A   Partly Cloudy
4:53 PM 90.0 °F 90.6 °F 63.0 °F 40% 30.20 in 10.0 mi SE 5.8 mph - N/A   Clear
5:53 PM 90.0 °F 91.7 °F 64.9 °F 43% 30.19 in 10.0 mi Variable 3.5 mph - N/A   Clear
6:53 PM 89.1 °F 90.3 °F 64.0 °F 43% 30.18 in 10.0 mi SE 3.5 mph - N/A   Clear
7:53 PM 88.0 °F 88.7 °F 63.0 °F 43% 30.18 in 10.0 mi Calm Calm - N/A   Clear
8:53 PM 77.0 °F - 68.0 °F 74% 30.19 in 10.0 mi Calm Calm - N/A   Clear
9:53 PM 73.9 °F - 69.1 °F 85% 30.20 in 10.0 mi Calm Calm - N/A   Clear
10:53 PM 73.0 °F - 68.0 °F 84% 30.21 in 10.0 mi Calm Calm - N/A   Clear
11:53 PM 71.1 °F - 68.0 °F 90% 30.22 in 10.0 mi South 3.5 mph - N/A   Clear